Location: Chihuahua
(28.6330°N, 106.0830°W)
Time: 18:19:43
(UTC-07:00)

Daily predictions for brighter satellites

Satellite Brightness Start Highest point End
(mag) Time Altitude Azimuth Time Altitude Azimuth Time Altitude Azimuth
Cosmos 1420 Rocket 4.2 19:18:56 10° N 19:24:07 54° ENE 19:29:14 10° SSE
CZ-2D R/B 3.8 19:22:32 10° SE 19:26:11 40° ENE 19:29:51 10° N
SL-24 R/B - RUBIN 2 4.0 19:22:11 10° SSW 19:27:08 65° ESE 19:32:49 10° NNE
Cosmos 2278 Rocket 3.0 19:24:31 10° N 19:29:38 34° ENE 19:34:39 10° SE
Okean 1 4.0 19:26:09 10° SSW 19:30:10 61° W 19:34:12 10° N
Cosmos 1400 Rocket 4.2 19:27:08 10° NNW 19:30:46 39° W 19:34:25 10° SSW
GEOS 3 Rocket 4.2 19:27:30 10° SE 19:32:29 44° NE 19:37:26 10° NNW
CZ-4B DEB 3.6 19:29:19 10° S 19:32:35 54° W 19:35:51 10° NNW
Cosmos 2233 Rocket 4.3 19:28:37 10° N 19:34:37 47° E 19:40:31 10° SSE
Lacrosse 5 rocket 2.1 19:31:23 10° SW 19:35:02 52° NW 19:38:53 10° NNE
Cosmos 2219 Rocket 3.8 19:32:13 10° SW 19:37:29 39° WNW 19:42:44 10° N
SL-16 R/B 2.3 19:36:19 10° S 19:41:49 55° ESE 19:47:19 10° NNE
Aureole 2 Rocket 4.1 19:41:34 10° SSE 19:44:46 21° ESE 19:47:48 10° NE
Okean 2 4.4 19:42:51 11° SSE 19:46:07 27° E 19:49:39 10° NNE
Meteor 1-13 Rocket 4.3 19:40:41 10° S 19:46:34 89° E 19:52:20 10° N
Cosmos 1500 3.3 19:46:26 10° N 19:50:16 58° E 19:53:45 12° SSE
deb Chang Zheng 4 3.7 19:47:07 10° NNE 19:51:24 52° E 19:55:38 10° S
Cosmos 494 Rocket 4.0 19:50:30 10° S 19:55:28 55° ESE 20:00:28 10° NNE
Cosmos 1743 3.3 19:54:43 10° NNE 19:58:18 38° E 20:00:13 22° SE
PSLV R/B 3.2 20:00:13 10° SW 20:03:44 86° SSE 20:07:17 10° ENE
Skynet4D Del rocket 4.3 19:59:32 10° W 20:04:35 38° SSW 20:07:32 21° SE
CZ-4 DEB 3.2 20:02:25 12° S 20:05:16 60° WSW 20:08:28 10° NNW
CZ-2C R/B 0.5 20:06:03 51° ESE 20:06:14 54° ENE 20:08:31 10° N
Cosmos 1606 Rocket 3.5 20:05:33 10° N 20:09:57 66° E 20:12:45 22° SSE
Tiangong 1 3.2 20:08:00 10° W 20:10:17 18° SW 20:11:34 15° SSW
H-2A R/B 2.3 20:08:27 26° SE 20:10:30 48° ENE 20:14:36 10° N
Cosmos 1603 4.3 20:06:39 15° SSE 20:10:34 33° ESE 20:15:32 10° NE
Meteor 1-19 Rocket 4.3 20:05:12 10° S 20:10:52 81° W 20:16:29 10° N
GPS 2-15 Rocket1 4.2 20:10:00 10° SW 20:14:07 28° S 20:15:15 25° SSE
Meteor 2-4 Rocket 3.7 20:10:21 10° S 20:16:06 80° E 20:22:01 10° N
Milstar 3 Cent rocket 2.3 20:09:14 10° W 20:17:06 73° SSW 20:19:50 28° ESE
Delta 168 3.4 20:14:11 10° WSW 20:17:45 42° SSE 20:19:14 32° ESE
SPOT 5 3.7 20:17:32 25° E 20:18:28 27° ENE 20:22:11 10° NNE
Cosmos 1626 Rocket 4.2 20:18:55 32° ESE 20:19:44 34° E 20:23:45 10° NNE
Cosmos 1331 Rocket 4.3 20:17:22 10° N 20:22:22 47° ENE 20:24:17 32° ESE
H-2A R/B 4.0 20:19:52 11° S 20:23:26 40° W 20:27:10 10° NNW
USA 186 3.8 20:22:43 10° SSW 20:25:14 24° W 20:27:41 10° NW
Cosmos 2297 3.8 20:25:40 10° N 20:31:19 61° ENE 20:33:35 36° SE
SeaSat 1 3.0 20:32:58 34° E 20:34:16 41° ENE 20:38:54 10° N
Hubble Space Telescope 2.3 20:37:27 10° WSW 20:40:39 22° SSW 20:40:39 22° SSW
Cosmos 1891 Rocket 4.5 20:35:25 10° N 20:41:26 58° E 20:43:25 40° SE
CZ-4B R/B 3.6 20:38:04 10° NNE 20:43:05 56° ESE 20:44:18 45° SSE
Cosmos 2228 3.0 20:40:01 10° N 20:44:24 66° E 20:44:52 60° ESE
YAOGAN 6 4.4 20:47:30 21° NE 20:47:30 21° NE 20:49:24 10° NNE
OTV 4 2.0 20:45:10 10° WNW 20:47:03 32° W 20:47:03 32° W
ALOS 4.4 20:46:16 10° SSW 20:49:50 22° W 20:53:26 10° NW
IUS-17 SRM-1 4.0 20:50:59 10° W 20:54:36 78° S 21:00:44 28° ESE
Tsikada Rocket 3.9 20:51:53 31° S 20:55:09 80° E 21:01:34 10° N
Cosmos 1939 Rocket 3.3 20:55:28 49° SW 20:56:13 59° W 21:00:20 10° NNW
Atlas Centaur 2 2.9 20:49:34 10° WSW 20:57:23 77° SSE 21:03:19 22° E
Envisat 2.9 20:57:00 53° S 20:58:15 84° WSW 21:03:21 10° NNW
COSMOS 2455 2.7 20:56:15 36° S 20:58:45 69° ESE 21:04:42 10° NNE
MetOp-A 4.1 20:58:43 57° ESE 20:59:26 63° ENE 21:04:43 10° N
ERS-1 Rocket 4.2 20:56:52 20° SSW 20:59:45 37° W 21:04:22 10° NNW
ATLAS 3B R/B 3.3 21:05:15 42° ESE 21:05:15 42° ESE 21:12:05 10° NE
Cosmos 1513 Rocket 4.5 20:59:16 10° N 21:05:33 81° W 21:07:42 43° S
Meteor 1-15 Rocket 4.3 21:02:06 10° NNW 21:07:40 71° W 21:09:17 46° SSW
Cosmos 2285 Rocket 4.2 21:06:23 10° NNW 21:12:40 68° WSW 21:14:32 46° SSW
Cosmos 2278 Rocket 4.0 21:09:00 10° NW 21:13:25 24° WSW 21:16:32 15° SW
USA 234 3.6 21:15:11 43° E 21:16:48 53° NE 21:23:09 10° NNW
Cosmos 1666 4.3 21:21:10 10° NNW 21:24:20 32° W 21:24:20 32° W
Gbstr 26 Del rocket 4.4 21:17:32 10° NW 21:25:20 85° SW 21:27:05 60° SSE
Cosmos 2369 Rocket 3.9 21:24:34 10° NNE 21:28:01 20° NE 21:28:01 20° NE
ARGOS 3.3 21:29:43 63° NE 21:29:43 63° NE 21:34:34 10° N
H-2A R/B 3.6 21:31:07 24° NE 21:31:07 24° NE 21:33:47 10° NNE
NOAA 11 4.4 21:33:57 60° NNE 21:33:57 60° NNE 21:38:37 10° N
USA 245 4.4 21:35:19 75° SW 21:35:43 79° WSW 21:41:34 10° NNW
SPOT 1/Viking Rocket 3.8 21:38:24 67° NW 21:38:24 67° NW 21:42:59 10° NNW
Cosmos 1634 Rocket 4.1 21:41:31 10° N 21:46:54 65° NE 21:46:54 65° NE
Cosmos 1943 4.4 22:21:12 37° WNW 22:21:12 37° WNW 22:26:16 10° N
Terra 3.8 22:30:52 25° NNW 22:30:52 25° NNW 22:32:55 10° NNW
Cosmos 1943 Rocket 4.0 22:39:59 10° N 22:42:31 24° NNE 22:42:31 24° NNE
Atlas Centaur 2 3.3 22:39:11 10° W 22:46:01 62° WNW 22:46:01 62° WNW
ATLAS 3B R/B 4.2 22:52:20 24° W 22:55:46 35° NW 23:02:36 10° N
Cosmos 2369 Rocket 4.2 23:07:37 10° NW 23:09:48 22° NW 23:09:48 22° NW
